Location: Ottawa
(45.4167°N, 75.7000°W)
Time: 19:06:30
(UTC-04:00)

Tiangong 1 - Pass Details

Date: 13 October 2017
Orbit: 292 x 320 km, 42.8° (Epoch: 21 October)

Event Time Altitude Azimuth Distance (km) Brightness Sun altitude
Rises 19:53:25 0° 271° (W) 2,042 6.5 -17.1°
Reaches altitude 10° 19:55:37 10° 256° (WSW) 1,205 4.7 -17.5°
Maximum altitude 19:57:50 23° 200° (SSW) 718 2.5 -17.9°
Enters shadow 19:58:04 23° 191° (SSW) 724 2.5 -17.9°
